Wind_Speed
52 55 51 44 47 49 52 52 53 50 46 52 51 52 48 42 38 32 33 36 34 30 29 31 38 41 43 46 43 40 39 39 40 40 38 38 37 36 40 43 41 42 42 41
51 55 47 51 51 51 52 53 54 53 52 54 54 52 50 46 39 36 30 26 31 34 33 33 38 39 39 42 43 42 41 42 42 43 42 40 38 39 40 41 41 41 41 39
53 52 46 48 50 48 48 51 50 56 54 54 56 53 51 44 37 31 34 37 34 34 36 31 35 40 42 42 44 43 44 45 45 46 45 44 42 42 40 37 40 42 43 43
47 42 42 42 46 46 52 45 50 51 54 56 53 53 49 46 43 38 38 39 34 31 31 30 33 36 39 40 40 41 40 42 45 46 46 45 46 45 44 43 45 43 43 43
50 48 47 50 44 48 54 54 50 52 55 58 60 60 53 54 55 55 48 44 45 46 50 41 36 42 43 44 45 41 42 41 43 46 47 48 48 47 48 49 49 48 47 46
55 54 56 55 55 52 52 55 59 57 57 61 61 60 54 56 60 62 58 61 62 60 60 62 58 45 45 48 45 45 46 46 44 41 44 47 49 48 49 50 51 51 48 45
58 58 58 57 57 55 51 52 58 63 65 63 61 65 57 62 61 64 63 65 66 66 64 63 62 57 50 50 51 52 50 49 45 47 46 45 46 48 50 49 46 49 50 46
68 65 58 57 56 59 58 59 62 63 64 65 63 70 65 60 60 61 66 67 68 66 62 59 58 58 56 50 50 55 57 55 50 47 48 49 47 46 47 41 41 43 44 45
70 77 73 71 67 64 64 65 57 61 61 65 66 69 69 63 61 59 64 65 62 60 63 69 60 56 43 39 38 41 44 48 54 53 47 49 52 43 41 45 47 49 50 47
75 79 77 77 76 75 70 68 69 68 69 72 75 73 72 62 59 62 62 62 62 60 60 61 60 56 58 58 46 49 49 47 49 53 54 52 49 46 46 49 54 54 56 57
71 74 78 81 81 75 76 75 73 69 65 70 74 73 65 64 58 63 64 64 65 59 54 52 52 54 60 57 54 51 51 47 53 56 61 63 61 56 55 57 60 65 66 67
71 73 75 73 73 72 72 72 69 70 74 72 70 68 57 58 60 62 66 67 66 68 63 61 64 59 59 62 57 57 51 56 59 61 61 67 67 58 63 66 66 68 70 69
69 65 72 73 74 75 75 70 70 69 63 63 64 64 55 58 65 70 70 72 72 73 72 74 75 73 64 63 65 68 69 70 66 65 69 67 66 66 68 70 72 73 72 69
67 67 70 72 72 69 69 67 66 66 69 69 71 74 71 76 74 65 65 67 70 73 74 74 81 80 71 68 65 70 66 70 65 62 64 60 63 73 74 78 77 75 77 74
64 69 67 67 68 68 66 67 65 68 70 76 76 81 75 73 65 66 66 68 66 65 69 74 76 80 85 84 79 71 73 81 77 77 81 80 72 71 72 68 72 67 66 76
65 67 68 68 66 67 71 69 68 69 71 73 73 76 75 76 79 73 74 74 65 69 78 74 76 85 90 88 92 88 86 84 86 93 94 90 82 76 77 78 80 81 78 74
70 69 71 77 71 74 79 73 73 75 73 76 81 79 79 78 77 76 75 79 81 81 73 74 76 76 81 82 91 96 93 88 87 89 87 82 79 78 79 81 82 84 84 81
74 72 75 79 76 83 80 76 78 80 80 80 81 83 83 84 83 81 78 81 86 90 91 84 84 76 79 81 84 83 83 91 92 85 80 80 79 80 88 87 88 88 86 84
75 74 79 81 81 83 80 77 78 80 83 84 84 84 85 84 83 81 83 84 83 84 85 88 92 89 81 77 81 83 86 92 85 86 89 83 86 84 86 88 91 97 98 93
76 76 77 79 81 83 81 80 81 82 83 83 84 83 83 84 85 82 84 86 86 88 87 87 85 88 89 95 93 91 92 87 85 96 90 84 88 88 89 90 89 81 89 97
73 72 73 74 76 78 76 74 74 76 77 79 80 81 82 84 85 85 85 87 88 88 89 91 92 93 92 91 91 95 101 100 91 90 88 88 90 90 86 84 71 69 66 67
69 69 70 71 73 75 72 71 72 72 73 75 77 79 81 84 86 87 87 86 87 87 87 88 90 91 94 97 102 104 103 95 96 93 92 92 82 81 81 80 69 72 67 63
64 60 63 65 66 63 63 65 66 69 72 73 76 78 81 82 83 84 85 85 86 88 89 90 92 90 89 92 95 98 101 107 100 98 93 90 85 76 70 70 67 65 69 67
55 55 60 59 57 60 61 62 65 67 70 71 73 75 77 78 79 81 83 84 85 86 88 89 89 90 89 90 92 94 97 101 109 105 99 96 94 79 72 71 76 75 74 73
52 53 54 58 58 59 60 62 64 65 65 66 67 69 71 72 74 76 78 79 80 81 82 82 83 85 87 88 90 91 93 96 98 102 112 112 112 108 96 93 91 85 85 83
47 49 55 57 55 56 61 60 61 60 60 61 61 59 62 68 72 74 75 75 76 77 76 77 77 80 80 81 81 83 86 90 93 96 97 99 109 113 118 112 104 94 85 83
Wind_Direction
279 279 282 287 278 279 280 281 283 286 286 281 277 282 286 285 288 293 292 291 292 285 285 282 275 272 270 268 269 273 273 273 270 269 267 264 264 265 266 267 268 269 267 265
279 276 282 276 277 277 280 282 282 283 283 280 285 285 285 289 292 295 290 289 292 290 283 278 274 272 271 268 270 270 269 270 267 265 263 265 267 271 272 271 268 266 267 265
273 276 277 279 277 278 279 278 281 280 282 281 285 285 285 287 290 288 290 291 290 291 287 282 275 275 273 271 270 270 265 264 264 263 264 263 266 268 269 267 264 265 263 260
271 272 273 277 279 281 276 279 277 281 281 282 278 278 280 287 289 284 282 285 285 280 280 287 284 280 282 281 279 277 270 266 265 262 260 258 260 265 266 263 262 265 265 266
276 275 271 269 276 278 280 277 278 278 277 276 275 280 283 289 291 289 286 289 292 290 290 282 274 279 284 284 281 277 273 266 260 261 264 264 262 262 264 264 264 263 263 262
275 274 269 270 270 275 275 275 274 273 273 272 278 283 274 279 281 285 288 295 298 295 292 292 292 283 277 278 279 278 275 273 265 260 259 262 264 263 261 260 261 264 266 266
273 273 273 270 268 272 274 273 271 272 275 277 278 277 266 274 283 287 293 295 293 291 288 288 291 291 290 285 281 278 274 273 267 261 258 257 259 263 265 267 264 264 264 260
276 270 270 271 276 276 276 278 275 278 280 278 273 271 265 277 279 284 289 290 288 286 289 289 286 287 291 288 282 278 272 269 266 266 269 263 258 258 260 264 267 263 259 260
281 279 280 279 278 276 278 275 280 279 277 274 272 274 274 277 282 282 281 282 288 287 282 279 279 280 279 273 264 258 256 264 264 264 262 261 258 253 256 260 260 263 260 260
281 279 275 278 278 277 279 280 279 279 280 279 280 276 276 277 278 276 275 276 274 271 271 274 275 274 274 272 256 250 244 244 246 250 245 245 246 251 259 262 259 256 257 259
282 283 279 278 278 281 280 277 278 280 276 278 282 281 282 280 275 274 272 269 269 271 271 270 268 272 270 268 261 245 245 254 246 246 244 245 246 250 258 265 265 263 265 265
282 282 284 284 281 281 279 281 280 281 284 282 281 281 286 280 277 270 270 271 270 265 267 266 266 272 275 272 256 245 243 257 255 243 241 247 250 253 255 259 263 262 264 267
276 276 278 277 280 283 283 281 279 280 276 271 270 271 267 266 271 274 270 269 267 264 263 263 262 262 265 262 256 247 256 259 247 245 244 248 254 264 262 261 264 261 258 260
274 274 275 275 277 275 271 273 274 272 269 265 265 272 272 274 275 275 272 271 269 269 271 270 262 261 264 253 252 256 254 252 250 252 248 255 267 264 264 265 263 262 262 260
273 273 274 274 274 274 274 273 270 268 269 274 274 274 274 275 274 276 279 270 264 266 262 262 261 260 261 259 251 247 247 249 252 254 261 266 265 264 262 262 262 257 262 262
273 275 276 275 275 276 274 273 275 275 276 275 270 269 271 273 277 277 268 264 266 266 259 261 263 262 263 259 258 254 255 263 264 264 262 265 267 260 252 256 260 262 264 262
273 274 275 274 275 273 270 278 276 276 274 271 273 275 277 279 279 277 268 264 265 269 276 271 266 261 260 262 263 263 267 268 268 270 267 263 258 258 255 259 256 256 257 257
270 271 271 273 272 271 277 276 274 274 275 276 277 278 278 278 277 278 274 270 268 268 265 267 269 257 260 265 263 262 262 269 266 267 267 257 252 255 257 256 253 254 253 255
268 269 270 270 272 273 272 276 277 277 279 280 280 279 280 280 280 280 280 278 275 272 268 264 262 261 264 265 267 265 268 263 260 264 263 256 256 261 261 266 266 257 255 253
267 269 269 271 272 273 273 274 274 276 276 277 277 277 278 278 277 277 276 275 276 276 275 273 270 269 267 262 261 259 260 259 262 261 258 260 264 265 265 269 268 262 258 259
270 273 273 274 276 276 277 277 277 277 279 277 279 280 279 279 279 280 278 277 276 274 272 270 269 267 264 264 264 260 261 266 266 264 260 263 267 265 262 262 263 268 269 265
271 272 273 272 273 276 278 279 279 278 276 278 278 278 279 281 282 282 282 281 281 280 278 276 274 271 269 268 267 264 267 268 266 267 265 266 261 258 256 256 265 268 270 259
275 275 273 272 275 277 280 277 275 276 277 276 279 281 281 281 282 281 281 281 281 280 279 277 277 275 272 271 269 267 265 265 263 260 260 257 253 256 260 261 261 266 268 263
274 273 275 277 279 279 277 276 277 278 280 281 282 282 283 284 284 284 284 283 282 281 280 280 279 277 274 272 270 268 265 263 257 256 253 256 254 253 258 261 263 263 267 268
277 280 282 277 279 278 277 279 282 284 285 285 285 284 285 286 286 287 286 287 287 287 286 285 284 281 278 275 273 272 270 267 262 259 255 254 259 256 254 258 260 261 267 264
284 283 280 282 281 283 283 283 284 285 285 287 289 289 289 290 291 292 292 293 292 291 289 287 284 283 281 279 276 273 271 269 267 263 260 257 254 258 258 260 262 263 262 260
Height
5798 5793 5795 5800 5792 5788 5785 5782 5780 5785 5787 5777 5776 5771 5775 5779 5781 5785 5783 5779 5779 5779 5776 5773 5770 5767 5764 5763 5764 5765 5765 5766 5766 5766 5765 5765 5766 5767 5767 5767 5768 5767 5767 5767
5788 5781 5789 5783 5782 5779 5777 5774 5771 5770 5772 5768 5765 5759 5764 5771 5772 5770 5772 5771 5767 5767 5766 5764 5759 5757 5754 5753 5754 5756 5756 5755 5756 5756 5756 5756 5756 5758 5757 5757 5757 5757 5757 5757
5776 5776 5775 5773 5770 5771 5769 5765 5764 5759 5759 5758 5754 5746 5750 5759 5764 5763 5762 5761 5759 5758 5755 5752 5750 5748 5747 5746 5744 5744 5745 5745 5744 5745 5746 5747 5747 5747 5747 5747 5746 5745 5745 5746
5763 5768 5765 5761 5760 5760 5754 5757 5753 5752 5748 5744 5744 5731 5738 5747 5751 5753 5752 5749 5746 5747 5745 5744 5743 5741 5739 5738 5737 5737 5735 5734 5734 5734 5736 5736 5736 5736 5736 5734 5733 5734 5735 5737
5756 5754 5752 5751 5750 5745 5748 5744 5743 5741 5738 5735 5730 5730 5734 5734 5732 5729 5733 5740 5740 5737 5735 5734 5732 5733 5731 5728 5728 5727 5726 5724 5723 5723 5725 5726 5726 5726 5724 5722 5722 5722 5723 5725
5741 5740 5738 5737 5737 5735 5732 5730 5727 5724 5724 5723 5726 5726 5722 5727 5722 5718 5721 5719 5717 5716 5716 5714 5715 5720 5719 5718 5717 5717 5716 5715 5713 5711 5711 5712 5713 5713 5712 5710 5711 5711 5711 5712
5724 5725 5726 5723 5721 5720 5717 5715 5709 5706 5706 5711 5712 5707 5717 5714 5718 5714 5712 5709 5704 5699 5696 5697 5698 5699 5699 5701 5703 5702 5702 5703 5703 5699 5697 5697 5697 5698 5699 5700 5700 5700 5700 5699
5707 5712 5712 5711 5709 5706 5702 5702 5697 5686 5691 5692 5691 5686 5706 5707 5706 5706 5701 5694 5690 5684 5679 5681 5680 5679 5679 5680 5683 5685 5688 5689 5690 5690 5689 5687 5684 5685 5686 5686 5687 5687 5688 5688
5688 5692 5695 5693 5691 5690 5689 5682 5685 5672 5670 5665 5675 5676 5682 5700 5697 5695 5685 5680 5673 5671 5668 5665 5664 5667 5663 5666 5668 5670 5672 5673 5674 5673 5673 5674 5674 5671 5671 5672 5672 5672 5673 5673
5670 5664 5683 5678 5677 5675 5668 5669 5663 5660 5650 5643 5642 5656 5661 5681 5687 5680 5669 5659 5655 5653 5650 5653 5651 5652 5653 5649 5648 5646 5646 5649 5651 5653 5652 5652 5653 5655 5656 5658 5658 5658 5656 5657
5652 5645 5658 5653 5661 5660 5654 5646 5644 5638 5636 5626 5622 5627 5650 5656 5662 5650 5641 5636 5638 5641 5641 5639 5637 5636 5635 5636 5637 5634 5635 5638 5637 5636 5636 5637 5637 5637 5639 5641 5641 5640 5639 5639
5638 5627 5626 5635 5641 5638 5633 5629 5628 5618 5615 5613 5603 5600 5629 5630 5635 5623 5621 5619 5620 5619 5620 5620 5620 5619 5618 5622 5621 5621 5618 5620 5621 5618 5619 5621 5623 5622 5623 5623 5622 5622 5623 5621
5621 5613 5609 5611 5620 5621 5611 5613 5610 5607 5600 5594 5588 5587 5608 5599 5599 5605 5603 5603 5601 5600 5601 5600 5598 5599 5597 5598 5601 5602 5601 5599 5600 5602 5604 5604 5606 5606 5607 5607 5606 5604 5602 5603
5603 5598 5598 5592 5594 5598 5592 5594 5592 5591 5582 5576 5573 5570 5577 5578 5578 5580 5579 5579 5579 5579 5581 5582 5582 5579 5578 5577 5578 5580 5580 5580 5580 5581 5582 5584 5586 5587 5587 5586 5586 5587 5586 5585
5587 5578 5581 5580 5578 5575 5573 5573 5578 5571 5567 5556 5560 5555 5547 5555 5557 5558 5556 5555 5555 5556 5557 5557 5558 5559 5558 5557 5557 5557 5557 5557 5558 5558 5560 5562 5564 5565 5566 5565 5564 5565 5566 5568
5568 5561 5561 5557 5564 5554 5548 5554 5555 5555 5553 5541 5538 5535 5533 5535 5537 5538 5536 5536 5533 5531 5534 5535 5536 5535 5532 5531 5529 5533 5533 5532 5533 5533 5534 5536 5538 5541 5541 5543 5543 5546 5546 5547
5551 5547 5545 5533 5546 5533 5524 5543 5536 5529 5529 5522 5521 5520 5515 5513 5514 5512 5514 5513 5510 5508 5508 5511 5509 5508 5507 5504 5504 5505 5507 5508 5510 5509 5508 5511 5513 5516 5517 5519 5519 5520 5521 5522
5529 5532 5523 5513 5520 5504 5519 5520 5513 5509 5504 5503 5499 5494 5493 5493 5491 5487 5489 5487 5487 5486 5485 5485 5484 5483 5482 5481 5480 5482 5480 5482 5482 5482 5482 5486 5487 5491 5493 5493 5494 5496 5497 5499
5510 5510 5500 5496 5495 5491 5498 5498 5491 5486 5481 5480 5475 5472 5470 5469 5469 5467 5461 5458 5459 5458 5459 5458 5457 5458 5455 5455 5456 5458 5458 5455 5455 5458 5458 5459 5462 5465 5466 5467 5469 5471 5472 5473
5493 5489 5484 5479 5474 5467 5476 5478 5473 5469 5462 5460 5452 5450 5446 5443 5442 5448 5440 5435 5434 5431 5429 5428 5428 5428 5425 5425 5427 5428 5429 5427 5428 5430 5430 5431 5433 5435 5439 5441 5439 5442 5445 5447
5473 5466 5463 5460 5451 5450 5455 5457 5452 5446 5445 5434 5429 5425 5420 5415 5414 5415 5417 5412 5408 5407 5405 5401 5400 5401 5400 5397 5393 5396 5396 5395 5398 5400 5402 5405 5405 5408 5411 5415 5415 5416 5418 5423
5450 5451 5450 5443 5437 5432 5436 5435 5433 5424 5418 5415 5409 5403 5398 5396 5393 5387 5386 5385 5378 5377 5375 5372 5368 5371 5371 5368 5363 5363 5364 5364 5366 5370 5375 5378 5381 5382 5384 5387 5390 5392 5397 5400
5429 5435 5424 5423 5421 5423 5421 5414 5409 5399 5395 5397 5391 5387 5378 5374 5372 5367 5362 5360 5355 5348 5344 5340 5335 5338 5342 5336 5330 5332 5333 5329 5333 5338 5345 5351 5351 5353 5355 5361 5366 5370 5374 5379
5417 5412 5406 5407 5414 5402 5398 5393 5387 5384 5379 5379 5373 5366 5358 5351 5348 5342 5337 5334 5328 5323 5316 5310 5307 5305 5306 5304 5300 5297 5296 5295 5299 5304 5312 5317 5322 5326 5329 5336 5342 5346 5352 5356
5402 5399 5397 5388 5391 5381 5380 5377 5370 5366 5362 5358 5354 5347 5339 5331 5327 5319 5315 5310 5303 5297 5292 5283 5277 5273 5272 5270 5270 5266 5261 5259 5264 5268 5277 5285 5286 5293 5299 5307 5316 5322 5328 5335
5388 5385 5373 5371 5373 5361 5360 5363 5355 5351 5345 5339 5333 5329 5323 5315 5307 5299 5295 5287 5279 5272 5265 5257 5250 5241 5240 5238 5238 5233 5230 5226 5227 5232 5239 5245 5253 5257 5265 5275 5285 5294 5302 5308